Location: Saint-Gilles les Bains
(21.0539°S, 55.2287°E)
Time: 17:25:00
(UTC+04:00)

Hubble Space Telescope - Pass Details

Date: 11 December 2023
Orbit: 516 x 519 km, 28.5° (Epoch: 22 February)

Event Time Altitude Azimuth Distance (km) Brightness Sun altitude
Exits shadow 03:02:56 16° 79° (E) 1,429 3.3 -29.4°
Drops below altitude 10° 03:03:47 10° 77° (ENE) 1,757 3.7 -29.3°
Sets 03:06:02 0° 75° (ENE) 2,642 4.7 -28.9°
